K6PKL-2 Weather Reports


Display with metric or nautical units.
time (UTC)temp
F
wind
direction
speed
MPH
gust
MPH
rain 1hr
in
rain 24hr
in
rain mn
in
humidity
%
barometer
mb
20260508004056 86 254 0.0 6.0 0.00 0.00 0.00 51 1019.1
20260508003655 86 310 0.0 4.0 0.00 0.00 0.00 51 1019.2
20260508002855 85 255 2.0 6.0 0.00 0.00 0.00 51 1019.2
20260508002055 85 2 0.0 6.0 0.00 0.00 0.00 52 1019.1
20260508001655 85 310 3.0 7.0 0.00 0.00 0.00 52 1019.2
20260508000854 85 301 0.0 9.0 0.00 0.00 0.00 53 1019.2
20260508000457 85 324 4.0 6.0 0.00 0.00 0.00 53 1019.3
20260508000055 85 337 4.0 7.0 0.00 0.00 0.00 52 1019.3
20260507235654 85 326 6.0 6.0 0.00 0.00 0.00 53 1019.3
20260507235254 85 342 0.0 6.0 0.00 0.00 0.00 53 1019.3
20260507234854 85 295 2.0 6.0 0.00 0.00 0.00 53 1019.3
20260507234454 84 352 6.0 7.0 0.00 0.00 0.00 53 1019.4
20260507234054 84 333 4.0 6.0 0.00 0.00 0.00 53 1019.4
20260507233253 84 13 4.0 7.0 0.00 0.00 0.00 53 1019.4
20260507232453 84 324 5.0 5.0 0.00 0.00 0.00 53 1019.5
20260507232053 83 135 1.0 6.0 0.00 0.00 0.00 53 1019.6
20260507231653 83 2 3.0 9.0 0.00 0.00 0.00 54 1019.7
20260507231253 83 289 0.0 4.0 0.00 0.00 0.00 54 1019.7
20260507230852 83 282 4.0 8.0 0.00 0.00 0.00 54 1019.8
20260507230452 83 0 2.0 8.0 0.00 0.00 0.00 55 1019.7
20260507230052 83 333 8.0 8.0 0.00 0.00 0.00 55 1019.9
20260507225653 83 339 5.0 5.0 0.00 0.00 0.00 56 1019.9
20260507225252 82 342 0.0 6.0 0.00 0.00 0.00 55 1019.9
20260507224852 82 332 4.0 8.0 0.00 0.00 0.00 56 1020.0
20260507224452 82 0 7.0 9.0 0.00 0.00 0.00 55 1020.1
20260507224051 82 346 7.0 8.0 0.00 0.00 0.00 56 1020.1
20260507223651 82 317 4.0 6.0 0.00 0.00 0.00 56 1020.2
20260507223251 82 339 3.0 8.0 0.00 0.00 0.00 57 1020.2
20260507222851 82 9 3.0 8.0 0.00 0.00 0.00 57 1020.3
20260507222051 81 303 4.0 5.0 0.00 0.00 0.00 58 1020.4
20260507221651 81 343 4.0 5.0 0.00 0.00 0.00 58 1020.4
20260507221250 81 283 0.0 4.0 0.00 0.00 0.00 58 1020.4
20260507220850 81 3 2.0 9.0 0.00 0.00 0.00 58 1020.5
20260507220450 81 324 5.0 9.0 0.00 0.00 0.00 58 1020.6
20260507220050 80 0 6.0 6.0 0.00 0.00 0.00 59 1020.5
20260507215650 80 346 0.0 6.0 0.00 0.00 0.00 59 1020.7
20260507215250 80 334 3.0 7.0 0.00 0.00 0.00 59 1020.7
20260507214850 80 326 2.0 6.0 0.00 0.00 0.00 59 1020.9
20260507214449 80 317 2.0 4.0 0.00 0.00 0.00 59 1020.9
20260507214049 80 279 0.0 6.0 0.00 0.00 0.00 60 1020.9
20260507213649 79 300 3.0 7.0 0.00 0.00 0.00 60 1020.9
20260507213249 79 22 3.0 7.0 0.00 0.00 0.00 61 1021.0
20260507212849 79 319 2.0 5.0 0.00 0.00 0.00 61 1021.0
20260507212049 79 330 0.0 6.0 0.00 0.00 0.00 62 1021.1
20260507211648 78 2 2.0 2.0 0.00 0.00 0.00 62 1021.2
20260507211249 78 0 3.0 7.0 0.00 0.00 0.00 62 1021.2
20260507210848 78 254 0.0 7.0 0.00 0.00 0.00 62 1021.4
20260507210048 78 339 3.0 5.0 0.00 0.00 0.00 63 1021.4
20260507205648 78 342 5.0 9.0 0.00 0.00 0.00 63 1021.5
20260507205248 78 225 0.0 4.0 0.00 0.00 0.00 63 1021.5
20260507204848 77 135 0.0 4.0 0.00 0.00 0.00 64 1021.4
20260507204447 77 297 0.0 7.0 0.00 0.00 0.00 64 1021.4
20260507204047 77 315 0.0 3.0 0.00 0.00 0.00 65 1021.5
20260507203647 77 294 3.0 3.0 0.00 0.00 0.00 65 1021.6
20260507203247 77 236 0.0 0.0 0.00 0.00 0.00 65 1021.7
20260507202848 76 278 2.0 7.0 0.00 0.00 0.00 66 1021.7
20260507202447 76 315 0.0 0.0 0.00 0.00 0.00 66 1021.8
20260507202046 76 18 0.0 7.0 0.00 0.00 0.00 66 1021.7
20260507201646 76 45 0.0 3.0 0.00 0.00 0.00 67 1021.7
20260507200846 75 315 0.0 4.0 0.00 0.00 0.00 67 1021.9
20260507200446 75 315 0.0 0.0 0.00 0.00 0.00 68 1021.8
20260507200046 75 315 0.0 3.0 0.00 0.00 0.00 68 1021.9
20260507195646 75 265 2.0 2.0 0.00 0.00 0.00 69 1022.0
20260507195245 74 49 0.0 5.0 0.00 0.00 0.00 69 1022.0
20260507194845 74 40 0.0 0.0 0.00 0.00 0.00 70 1022.0
20260507194445 74 330 1.0 8.0 0.00 0.00 0.00 70 1022.1
20260507194045 74 265 0.0 0.0 0.00 0.00 0.00 71 1022.1
20260507193645 73 7 0.0 5.0 0.00 0.00 0.00 71 1022.1
20260507193245 73 11 0.0 0.0 0.00 0.00 0.00 72 1022.2
20260507192044 72 321 3.0 3.0 0.00 0.00 0.00 72 1022.4
20260507191644 72 292 0.0 0.0 0.00 0.00 0.00 73 1022.4
20260507191244 72 9 0.0 5.0 0.00 0.00 0.00 72 1022.5
20260507185644 71 56 0.0 0.0 0.00 0.00 0.00 75 1022.5
20260507185243 70 0 0.0 7.0 0.00 0.00 0.00 75 1022.7
20260507184843 70 49 0.0 6.0 0.00 0.00 0.00 75 1022.6
20260507184443 70 29 0.0 0.0 0.00 0.00 0.00 75 1022.7
20260507183644 69 283 0.0 7.0 0.00 0.00 0.00 76 1022.8
20260507183243 69 45 2.0 2.0 0.00 0.00 0.00 76 1022.7
20260507182843 69 236 0.0 3.0 0.00 0.00 0.00 77 1022.8
20260507182443 69 0 0.0 1.0 0.00 0.00 0.00 77 1022.8
20260507182042 68 0 0.0 0.0 0.00 0.00 0.00 78 1022.8
20260507181642 68 315 0.0 0.0 0.00 0.00 0.00 78 1022.8
20260507181242 68 342 0.0 0.0 0.00 0.00 0.00 79 1022.9
20260507180842 68 2 0.0 5.0 0.00 0.00 0.00 79 1022.8
20260507180442 67 45 0.0 0.0 0.00 0.00 0.00 79 1022.9
20260507175641 67 274 0.0 0.0 0.00 0.00 0.00 79 1023.0
20260507175242 67 198 0.0 0.0 0.00 0.00 0.00 80 1023.0
20260507174841 66 202 0.0 0.0 0.00 0.00 0.00 80 1023.0
20260507174441 66 9 0.0 3.0 0.00 0.00 0.00 80 1023.0
20260507174041 66 6 0.0 5.0 0.00 0.00 0.00 80 1023.0
20260507173241 65 310 0.0 4.0 0.00 0.00 0.00 81 1023.0
20260507172840 65 29 0.0 3.0 0.00 0.00 0.00 82 1023.0
20260507171640 64 90 0.0 0.0 0.00 0.00 0.00 82 1023.0
20260507171240 64 351 0.0 1.0 0.00 0.00 0.00 82 1023.1
20260507170840 64 310 0.0 4.0 0.00 0.00 0.00 83 1023.2
20260507170440 64 135 0.0 0.0 0.00 0.00 0.00 84 1023.2
20260507165640 63 261 0.0 5.0 0.00 0.00 0.00 84 1023.3
20260507164839 63 180 0.0 0.0 0.00 0.00 0.00 84 1023.3
20260507164439 63 22 0.0 4.0 0.00 0.00 0.00 84 1023.3
20260507164039 63 54 0.0 3.0 0.00 0.00 0.00 85 1023.2
20260507163639 62 297 3.0 3.0 0.00 0.00 0.00 85 1023.3
20260507162838 62 45 0.0 0.0 0.00 0.00 0.00 86 1023.3
20260507162438 62 249 0.0 0.0 0.00 0.00 0.00 86 1023.3
20260507161638 62 202 0.0 0.0 0.00 0.00 0.00 86 1023.4
20260507161238 61 180 0.0 6.0 0.00 0.00 0.00 87 1023.5
20260507160838 61 225 1.0 6.0 0.00 0.00 0.00 87 1023.4
20260507160437 61 330 0.0 0.0 0.00 0.00 0.00 86 1023.5
20260507160038 61 45 0.0 3.0 0.00 0.00 0.00 87 1023.4
20260507155637 61 90 0.0 4.0 0.00 0.00 0.00 87 1023.5
20260507155237 61 315 0.0 6.0 0.00 0.00 0.00 87 1023.5
20260507154837 60 211 5.0 5.0 0.00 0.00 0.00 87 1023.5
20260507153636 60 20 0.0 2.0 0.00 0.00 0.00 87 1023.5
20260507153236 60 315 0.0 0.0 0.00 0.00 0.00 88 1023.5
20260507152436 60 245 2.0 2.0 0.00 0.00 0.00 88 1023.6
20260507152036 60 45 0.0 4.0 0.00 0.00 0.00 87 1023.6
20260507151236 59 315 0.0 4.0 0.00 0.00 0.00 88 1023.7
20260507150836 59 319 0.0 3.0 0.00 0.00 0.00 87 1023.6
20260507150435 59 4 0.0 3.0 0.00 0.00 0.00 87 1023.6
20260507145635 59 315 2.0 4.0 0.00 0.00 0.00 87 1023.7
20260507145235 59 90 0.0 4.0 0.00 0.00 0.00 88 1023.7
20260507144835 59 0 0.0 4.0 0.00 0.00 0.00 87 1023.7
20260507144436 59 303 2.0 3.0 0.00 0.00 0.00 87 1023.7
20260507144034 59 13 1.0 4.0 0.00 0.00 0.00 87 1023.6
20260507143634 59 306 0.0 3.0 0.00 0.00 0.00 87 1023.7
20260507142834 58 292 1.0 1.0 0.00 0.00 0.00 87 1023.6
20260507142434 58 13 0.0 4.0 0.00 0.00 0.00 87 1023.5
20260507142034 58 22 2.0 3.0 0.00 0.00 0.00 86 1023.5
20260507141634 58 11 0.0 0.0 0.00 0.00 0.00 87 1023.5
20260507141234 58 0 0.0 0.0 0.00 0.00 0.00 86 1023.5
20260507140433 58 317 0.0 0.0 0.00 0.00 0.00 85 1023.4
20260507140033 58 344 0.0 0.0 0.00 0.00 0.00 85 1023.3
20260507135233 58 0 0.0 0.0 0.00 0.00 0.00 85 1023.1
20260507134833 58 0 0.0 0.0 0.00 0.00 0.00 84 1023.2
20260507134432 58 315 0.0 0.0 0.00 0.00 0.00 84 1023.1
20260507134032 58 353 0.0 0.0 0.00 0.00 0.00 84 1023.2
20260507133232 58 45 0.0 0.0 0.00 0.00 0.00 83 1023.1
20260507132832 58 0 0.0 0.0 0.00 0.00 0.00 83 1023.0
20260507132032 58 355 0.0 1.0 0.00 0.00 0.00 83 1023.1
20260507131632 58 270 1.0 1.0 0.00 0.00 0.00 83 1022.9
20260507131231 58 319 0.0 0.0 0.00 0.00 0.00 83 1022.9
20260507130031 58 0 0.0 0.0 0.00 0.00 0.00 82 1022.7
20260507125631 58 270 0.0 0.0 0.00 0.00 0.00 83 1022.8
20260507125231 58 315 0.0 0.0 0.00 0.00 0.00 83 1022.7
20260507124830 58 270 0.0 0.0 0.00 0.00 0.00 82 1022.7
20260507124430 58 344 0.0 0.0 0.00 0.00 0.00 82 1022.8
20260507124030 58 0 0.0 0.0 0.00 0.00 0.00 81 1022.8
20260507123630 59 315 0.0 0.0 0.00 0.00 0.00 82 1022.8
20260507123230 59 22 0.0 0.0 0.00 0.00 0.00 81 1022.8
20260507122030 59 315 0.0 0.0 0.00 0.00 0.00 81 1022.7
20260507121629 59 315 0.0 0.0 0.00 0.00 0.00 81 1022.8
20260507121229 59 315 0.0 0.0 0.00 0.00 0.00 81 1022.9
20260507120429 59 315 0.0 0.0 0.00 0.00 0.00 80 1022.7
20260507120029 59 315 0.0 0.0 0.00 0.00 0.00 80 1022.7
20260507115629 59 315 0.0 0.0 0.00 0.00 0.00 80 1022.7
20260507115228 59 315 0.0 0.0 0.00 0.00 0.00 80 1022.7
20260507114828 59 315 0.0 0.0 0.00 0.00 0.00 80 1022.7
20260507114428 60 315 0.0 0.0 0.00 0.00 0.00 80 1022.7
20260507114028 60 315 0.0 0.0 0.00 0.00 0.00 79 1022.7
20260507113628 60 315 0.0 0.0 0.00 0.00 0.00 80 1022.7
20260507113228 60 315 0.0 0.0 0.00 0.00 0.00 80 1022.6
20260507112828 60 180 0.0 0.0 0.00 0.00 0.00 80 1022.6
20260507112428 60 315 0.0 0.0 0.00 0.00 0.00 79 1022.8
20260507112027 60 0 0.0 0.0 0.00 0.00 0.00 79 1022.6
20260507111627 60 324 0.0 0.0 0.00 0.00 0.00 78 1022.8
20260507111227 60 270 0.0 0.0 0.00 0.00 0.00 78 1022.7
20260507110827 60 225 0.0 0.0 0.00 0.00 0.00 78 1022.8
20260507110427 60 315 0.0 0.0 0.00 0.00 0.00 77 1022.7
20260507110027 60 0 0.0 0.0 0.00 0.00 0.00 77 1022.8
20260507105627 61 0 0.0 0.0 0.00 0.00 0.00 78 1022.7
20260507105226 61 0 0.0 0.0 0.00 0.00 0.00 77 1022.8
20260507104826 61 315 0.0 0.0 0.00 0.00 0.00 77 1022.7
20260507104426 61 315 0.0 0.0 0.00 0.00 0.00 77 1022.7
20260507104026 61 315 0.0 0.0 0.00 0.00 0.00 77 1022.5
20260507103626 61 315 0.0 0.0 0.00 0.00 0.00 77 1022.7
20260507103226 61 315 0.0 0.0 0.00 0.00 0.00 77 1022.8
20260507102825 61 315 0.0 0.0 0.00 0.00 0.00 77 1022.7
20260507102425 61 315 0.0 0.0 0.00 0.00 0.00 77 1022.7
20260507102025 61 0 0.0 0.0 0.00 0.00 0.00 76 1022.6
20260507101625 62 45 0.0 0.0 0.00 0.00 0.00 76 1022.8
20260507101225 62 270 0.0 0.0 0.00 0.00 0.00 76 1022.7
20260507100825 62 0 0.0 0.0 0.00 0.00 0.00 76 1022.7
20260507100425 62 0 0.0 0.0 0.00 0.00 0.00 75 1022.8
20260507100025 62 315 0.0 0.0 0.00 0.00 0.00 75 1022.8
20260507095624 62 45 0.0 0.0 0.00 0.00 0.00 75 1022.7
20260507095224 62 31 0.0 0.0 0.00 0.00 0.00 74 1022.6
20260507094824 63 90 0.0 0.0 0.00 0.00 0.00 74 1022.7
20260507094424 63 90 0.0 0.0 0.00 0.00 0.00 74 1022.7
20260507093624 63 45 0.0 0.0 0.00 0.00 0.00 73 1022.6
20260507093224 63 45 0.0 0.0 0.00 0.00 0.00 73 1022.7
20260507092823 63 45 0.0 0.0 0.00 0.00 0.00 73 1022.8
20260507092423 63 67 0.0 0.0 0.00 0.00 0.00 73 1022.8
20260507092023 63 67 0.0 0.0 0.00 0.00 0.00 73 1022.9
20260507091223 63 22 0.0 0.0 0.00 0.00 0.00 73 1022.9
20260507090823 63 45 0.0 0.0 0.00 0.00 0.00 73 1022.8
20260507090423 63 45 0.0 0.0 0.00 0.00 0.00 73 1022.8
20260507090022 63 90 0.0 0.0 0.00 0.00 0.00 73 1022.9
20260507085622 63 90 0.0 0.0 0.00 0.00 0.00 72 1023.0
20260507085222 63 45 0.0 0.0 0.00 0.00 0.00 73 1022.9
20260507084022 64 90 0.0 0.0 0.00 0.00 0.00 73 1023.0
20260507083622 64 90 0.0 0.0 0.00 0.00 0.00 73 1023.0
20260507083221 64 45 0.0 0.0 0.00 0.00 0.00 73 1023.0
20260507082821 64 45 0.0 0.0 0.00 0.00 0.00 73 1023.0
20260507082421 64 74 0.0 0.0 0.00 0.00 0.00 73 1022.9
20260507082021 64 135 0.0 0.0 0.00 0.00 0.00 73 1022.9
20260507081621 64 135 0.0 0.0 0.00 0.00 0.00 73 1022.9
20260507081221 64 45 0.0 0.0 0.00 0.00 0.00 73 1022.8
20260507080420 64 85 0.0 0.0 0.00 0.00 0.00 73 1022.9
20260507080020 64 90 0.0 2.0 0.00 0.00 0.00 74 1022.9
20260507074820 64 90 0.0 0.0 0.00 0.00 0.00 74 1023.0
20260507074420 64 90 0.0 0.0 0.00 0.00 0.00 74 1023.0
20260507074020 64 81 0.0 0.0 0.00 0.00 0.00 75 1022.9
20260507073619 64 45 0.0 0.0 0.00 0.00 0.00 74 1023.0
20260507073219 64 0 0.0 0.0 0.00 0.00 0.00 75 1022.8
20260507072819 64 0 0.0 0.0 0.00 0.00 0.00 74 1022.8
20260507072419 64 45 0.0 3.0 0.00 0.00 0.00 73 1022.8
20260507072019 65 324 0.0 4.0 0.00 0.00 0.00 74 1022.8
20260507071619 65 353 4.0 4.0 0.00 0.00 0.00 74 1022.8
20260507071219 65 0 2.0 3.0 0.00 0.00 0.00 73 1022.8
20260507070818 65 272 2.0 4.0 0.00 0.00 0.00 73 1022.8
20260507070418 65 315 4.0 5.0 0.00 0.00 0.00 73 1022.8
20260507070019 65 319 3.0 3.0 0.00 0.00 0.00 73 1022.8
20260507065618 65 0 0.0 3.0 0.00 0.00 0.00 73 1022.7
20260507065218 65 6 3.0 3.0 0.00 0.00 0.00 73 1022.8
20260507064818 65 290 0.0 0.0 0.00 0.00 0.00 72 1022.9
20260507064418 65 152 0.0 4.0 0.00 0.00 0.00 71 1022.7
20260507064018 66 45 0.0 2.0 0.00 0.00 0.00 72 1022.8
20260507063617 66 277 0.0 4.0 0.00 0.00 0.00 72 1022.8
20260507063217 66 270 0.0 2.0 0.00 0.00 0.00 72 1022.8
20260507062817 66 346 3.0 4.0 0.00 0.00 0.00 72 1022.7
20260507062417 66 315 0.0 0.0 0.00 0.00 0.00 71 1022.7
20260507062017 66 0 0.0 0.0 0.00 0.00 0.00 71 1022.7
20260507061617 67 0 0.0 0.0 0.00 0.00 0.00 71 1022.7
20260507061217 67 315 0.0 1.0 0.00 0.00 0.00 71 1022.7
20260507060816 67 0 2.0 3.0 0.00 0.00 0.00 71 1022.7
20260507060416 67 328 0.0 2.0 0.00 0.00 0.00 71 1022.8
20260507060016 67 328 1.0 4.0 0.00 0.00 0.00 71 1022.7
20260507055216 67 0 2.0 5.0 0.00 0.00 0.00 71 1022.8
20260507054816 68 252 2.0 4.0 0.00 0.00 0.00 71 1022.8
20260507054415 68 315 0.0 4.0 0.00 0.00 0.00 71 1022.8
20260507053615 68 315 0.0 2.0 0.00 0.00 0.00 70 1022.7
20260507053215 68 274 0.0 3.0 0.00 0.00 0.00 70 1022.9
20260507052815 69 20 0.0 2.0 0.00 0.00 0.00 70 1022.9
20260507052415 69 4 0.0 3.0 0.00 0.00 0.00 70 1022.8
20260507052015 69 357 0.0 2.0 0.00 0.00 0.00 70 1022.9
20260507051615 69 18 1.0 2.0 0.00 0.00 0.00 69 1022.8
20260507051214 69 0 0.0 3.0 0.00 0.00 0.00 70 1022.8
20260507050814 70 0 0.0 0.0 0.00 0.00 0.00 69 1022.7
20260507050414 70 270 0.0 2.0 0.00 0.00 0.00 69 1022.8
20260507050014 70 225 1.0 3.0 0.00 0.00 0.00 68 1022.8
20260507045614 70 351 0.0 4.0 0.00 0.00 0.00 68 1022.7
20260507045214 70 225 0.0 4.0 0.00 0.00 0.00 67 1022.7
20260507044814 71 317 0.0 5.0 0.00 0.00 0.00 67 1022.7
20260507044413 71 247 1.0 1.0 0.00 0.00 0.00 66 1022.8
20260507044013 71 315 0.0 6.0 0.00 0.00 0.00 66 1022.7
20260507043213 72 315 2.0 6.0 0.00 0.00 0.00 65 1022.6
20260507042813 72 344 5.0 5.0 0.00 0.00 0.00 65 1022.6
20260507042013 73 180 0.0 4.0 0.00 0.00 0.00 63 1022.7
20260507041612 74 346 0.0 2.0 0.00 0.00 0.00 63 1022.6
20260507040812 74 260 0.0 2.0 0.00 0.00 0.00 62 1022.5
20260507040012 75 225 0.0 2.0 0.00 0.00 0.00 62 1022.5
20260507035612 75 315 0.0 0.0 0.00 0.00 0.00 61 1022.4
20260507035212 76 321 0.0 2.0 0.00 0.00 0.00 61 1022.3
20260507034411 76 339 0.0 3.0 0.00 0.00 0.00 59 1022.2
20260507034011 77 315 0.0 0.0 0.00 0.00 0.00 58 1022.2
20260507033611 77 315 0.0 1.0 0.00 0.00 0.00 58 1022.2
20260507033211 77 22 0.0 0.0 0.00 0.00 0.00 57 1022.1
20260507032811 78 0 0.0 0.0 0.00 0.00 0.00 57 1022.0
20260507032411 78 256 0.0 0.0 0.00 0.00 0.00 56 1021.9
20260507031610 79 306 0.0 0.0 0.00 0.00 0.00 55 1021.9
20260507031210 79 346 0.0 0.0 0.00 0.00 0.00 54 1021.9
20260507030810 79 0 0.0 0.0 0.00 0.00 0.00 54 1021.9
20260507030410 80 330 0.0 0.0 0.00 0.00 0.00 54 1021.8
20260507025610 81 315 0.0 0.0 0.00 0.00 0.00 53 1021.7
20260507025209 81 330 0.0 0.0 0.00 0.00 0.00 52 1021.7
20260507024809 81 321 0.0 0.0 0.00 0.00 0.00 52 1021.7
20260507024409 82 4 0.0 0.0 0.00 0.00 0.00 51 1021.7
20260507023609 83 344 0.0 0.0 0.00 0.00 0.00 50 1021.6
20260507022809 84 45 0.0 4.0 0.00 0.00 0.00 49 1021.5
20260507022408 85 299 4.0 4.0 0.00 0.00 0.00 48 1021.5
20260507022008 86 355 0.0 0.0 0.00 0.00 0.00 48 1021.6
20260507021608 87 339 0.0 0.0 0.00 0.00 0.00 47 1021.4
20260507021208 88 0 0.0 3.0 0.00 0.00 0.00 47 1021.4
20260507020808 88 315 0.0 4.0 0.00 0.00 0.00 47 1021.5
20260507020408 88 58 0.0 3.0 0.00 0.00 0.00 47 1021.4
20260507020009 87 357 0.0 4.0 0.00 0.00 0.00 47 1021.4
20260507015607 87 24 0.0 5.0 0.00 0.00 0.00 48 1021.5
20260507015207 86 357 0.0 5.0 0.00 0.00 0.00 48 1021.4
20260507014407 85 315 3.0 4.0 0.00 0.00 0.00 49 1021.6
20260507014007 85 9 5.0 5.0 0.00 0.00 0.00 50 1021.5
20260507013607 84 45 0.0 6.0 0.00 0.00 0.00 50 1021.4
20260507013207 84 315 3.0 6.0 0.00 0.00 0.00 51 1021.3
20260507012806 83 247 0.0 4.0 0.00 0.00 0.00 51 1021.3
20260507012406 83 326 0.0 6.0 0.00 0.00 0.00 53 1021.4
20260507012006 82 4 0.0 4.0 0.00 0.00 0.00 53 1021.4
20260507011606 82 335 3.0 7.0 0.00 0.00 0.00 53 1021.4
20260507011206 82 310 0.0 0.0 0.00 0.00 0.00 54 1021.3
20260507010806 81 321 0.0 7.0 0.00 0.00 0.00 54 1021.3
20260507010406 81 17 6.0 8.0 0.00 0.00 0.00 54 1021.4
20260507010005 81 2 0.0 0.0 0.00 0.00 0.00 54 1021.4
20260507005605 81 0 0.0 0.0 0.00 0.00 0.00 54 1021.5
20260507004405 81 2 2.0 5.0 0.00 0.00 0.00 53 1021.5